2021-01-03 00:07:44 r, 18.86m,0000000003Hz,0000190547c,0000000.414s, 009.0C,00002191
2021-01-03 00:17:45 r, 18.85m,0000000003Hz,0000188129c,0000000.408s, 009.0C,00002191
2021-01-03 00:27:46 r, 18.79m,0000000002Hz,0000180158c,0000000.391s, 008.7C,00002191
2021-01-03 00:37:44 r, 18.69m,0000000003Hz,0000163029c,0000000.354s, 009.0C,00002191
2021-01-03 00:47:46 r, 18.61m,0000000003Hz,0000151690c,0000000.329s, 009.0C,00002191
2021-01-03 00:57:45 r, 18.50m,0000000003Hz,0000137051c,0000000.297s, 009.0C,00002191
2021-01-03 01:07:44 r, 18.39m,0000000004Hz,0000123355c,0000000.268s, 009.0C,00002191
2021-01-03 01:17:45 r, 18.47m,0000000004Hz,0000133305c,0000000.289s, 009.3C,00002191
2021-01-03 01:27:47 r, 18.36m,0000000004Hz,0000119835c,0000000.260s, 009.3C,00002191
2021-01-03 01:37:44 r, 18.03m,0000000005Hz,0000088956c,0000000.193s, 009.3C,00002191
2021-01-03 01:47:47 r, 18.12m,0000000004Hz,0000096415c,0000000.209s, 009.0C,00002191
2021-01-03 01:57:45 r, 18.07m,0000000005Hz,0000092108c,0000000.200s, 009.0C,00002191
2021-01-03 02:07:44 r, 17.93m,0000000006Hz,0000081661c,0000000.177s, 008.7C,00002191
2021-01-03 02:17:47 r, 17.65m,0000000007Hz,0000063104c,0000000.137s, 008.7C,00002191
2021-01-03 02:27:45 r, 17.77m,0000000007Hz,0000069647c,0000000.151s, 009.0C,00002191
2021-01-03 02:37:44 r, 17.84m,0000000006Hz,0000074429c,0000000.162s, 009.0C,00002191
2021-01-03 02:47:45 r, 17.74m,0000000006Hz,0000068354c,0000000.148s, 009.0C,00002191
2021-01-03 02:57:45 r, 17.56m,0000000008Hz,0000057646c,0000000.125s, 009.0C,00002191
2021-01-03 03:07:44 r, 17.42m,0000000009Hz,0000051154c,0000000.111s, 008.7C,00002191
2021-01-03 03:17:46 r, 17.40m,0000000009Hz,0000050133c,0000000.109s, 008.3C,00002191
2021-01-03 03:27:45 r, 17.10m,0000000012Hz,0000038091c,0000000.083s, 008.3C,00002191
2021-01-03 03:37:44 r, 16.89m,0000000015Hz,0000031444c,0000000.068s, 008.0C,00002191
2021-01-03 03:47:47 r, 16.99m,0000000013Hz,0000034540c,0000000.075s, 008.0C,00002191
2021-01-03 03:57:45 r, 16.98m,0000000014Hz,0000033907c,0000000.074s, 007.7C,00002191
2021-01-03 04:07:44 r, 16.95m,0000000014Hz,0000033132c,0000000.072s, 007.4C,00002191
2021-01-03 04:17:47 r, 16.96m,0000000013Hz,0000033415c,0000000.073s, 007.0C,00002191
2021-01-03 04:27:45 r, 16.88m,0000000015Hz,0000030899c,0000000.067s, 006.7C,00002191
2021-01-03 04:37:44 r, 16.78m,0000000017Hz,0000028272c,0000000.061s, 006.4C,00002191
2021-01-03 04:47:45 r, 16.63m,0000000019Hz,0000024665c,0000000.054s, 006.4C,00002191
2021-01-03 04:57:46 r, 16.68m,0000000018Hz,0000025697c,0000000.056s, 006.1C,00002191
2021-01-03 05:07:44 r, 17.01m,0000000013Hz,0000034883c,0000000.076s, 006.1C,00002191
2021-01-03 05:17:44 r, 17.40m,0000000009Hz,0000050004c,0000000.109s, 006.1C,00002191
2021-01-03 05:27:47 r, 17.62m,0000000007Hz,0000061325c,0000000.133s, 006.1C,00002191
2021-01-03 05:37:44 r, 17.84m,0000000006Hz,0000075253c,0000000.163s, 006.1C,00002191
2021-01-03 05:47:44 r, 17.98m,0000000005Hz,0000085401c,0000000.185s, 005.8C,00002191
2021-01-03 05:57:47 r, 18.07m,0000000005Hz,0000093009c,0000000.202s, 006.1C,00002191
2021-01-03 06:07:44 r, 18.17m,0000000005Hz,0000101755c,0000000.221s, 005.8C,00002191
2021-01-03 06:17:44 r, 18.28m,0000000004Hz,0000112360c,0000000.244s, 005.8C,00002191
2021-01-03 06:27:45 r, 18.38m,0000000004Hz,0000122945c,0000000.267s, 006.1C,00002191
2021-01-03 06:37:44 r, 18.46m,0000000004Hz,0000133477c,0000000.290s, 006.4C,00002191
2021-01-03 06:47:44 r, 18.52m,0000000003Hz,0000141057c,0000000.306s, 006.4C,00002191
2021-01-03 06:57:45 r, 18.53m,0000000003Hz,0000143066c,0000000.310s, 006.4C,00002191
2021-01-03 07:07:44 r, 18.40m,0000000003Hz,0000125819c,0000000.273s, 006.4C,00002191
2021-01-03 07:17:44 r, 17.87m,0000000006Hz,0000077381c,0000000.168s, 006.4C,00002191
2021-01-03 07:27:46 r, 16.76m,0000000016Hz,0000027824c,0000000.060s, 006.1C,00002191
2021-01-03 07:37:44 r, 15.02m,0000000082Hz,0000005569c,0000000.012s, 006.1C,00002191
2021-01-03 07:47:44 r, 13.13m,0000000475Hz,0000000000c,0000000.000s, 005.8C,00002191
2021-01-03 07:57:47 r, 11.06m,0000003190Hz,0000000000c,0000000.000s, 005.8C,00002191
2021-01-03 08:07:44 r, 09.15m,0000018510Hz,0000000000c,0000000.000s, 005.8C,00002191
2021-01-03 08:17:44 r, 08.08m,0000049243Hz,0000000000c,0000000.000s, 006.1C,00002191
2021-01-03 08:27:47 r, 07.18m,0000113509Hz,0000000000c,0000000.000s, 006.7C,00002191
2021-01-03 08:37:44 r, 06.66m,0000182410Hz,0000000000c,0000000.000s, 007.0C,00002191
2021-01-03 08:47:44 r, 05.91m,0000365198Hz,0000000000c,0000000.000s, 007.4C,00002191
2021-01-03 08:57:45 r, 00.00m,0000598675Hz,0000000000c,0000000.000s, 008.0C,00002191
2021-01-03 09:07:44 r, 00.00m,0000553451Hz,0000000000c,0000000.000s, 009.0C,00002191
2021-01-03 09:17:44 r, 00.00m,0000598611Hz,0000000000c,0000000.000s, 009.3C,00002191
2021-01-03 09:27:45 r, 00.00m,0000598474Hz,0000000000c,0000000.000s, 009.6C,00002191
2021-01-03 09:37:44 r, 00.00m,0000598457Hz,0000000000c,0000000.000s, 009.9C,00002191
2021-01-03 09:47:44 r, 00.00m,0000598416Hz,0000000000c,0000000.000s, 010.3C,00002191
2021-01-03 09:57:45 r, 00.00m,0000561395Hz,0000000000c,0000000.000s, 010.3C,00002191
2021-01-03 10:07:44 r, 00.00m,0000598375Hz,0000000000c,0000000.000s, 011.2C,00002191
2021-01-03 10:17:44 r, 00.00m,0000598337Hz,0000000000c,0000000.000s, 011.6C,00002191
2021-01-03 10:27:46 r, 00.00m,0000598356Hz,0000000000c,0000000.000s, 012.2C,00002191
2021-01-03 10:37:44 r, 00.00m,0000598145Hz,0000000000c,0000000.000s, 013.2C,00002191
2021-01-03 10:47:44 r, 00.00m,0000598081Hz,0000000000c,0000000.000s, 014.1C,00002191
2021-01-03 10:57:46 r, 00.00m,0000597894Hz,0000000000c,0000000.000s, 015.4C,00002191
2021-01-03 11:07:44 r, 00.00m,0000597864Hz,0000000000c,0000000.000s, 016.4C,00002191
2021-01-03 11:17:44 r, 00.00m,0000597904Hz,0000000000c,0000000.000s, 015.4C,00002191
2021-01-03 11:27:45 r, 00.00m,0000597956Hz,0000000000c,0000000.000s, 015.1C,00002191
2021-01-03 11:37:47 r, 00.00m,0000597961Hz,0000000000c,0000000.000s, 015.1C,00002191
2021-01-03 11:47:44 r, 00.00m,0000597931Hz,0000000000c,0000000.000s, 014.8C,00002191
2021-01-03 11:57:46 r, 00.00m,0000597870Hz,0000000000c,0000000.000s, 014.8C,00002191
2021-01-03 12:07:45 r, 00.00m,0000597956Hz,0000000000c,0000000.000s, 014.5C,00002191
2021-01-03 12:17:44 r, 00.00m,0000598074Hz,0000000000c,0000000.000s, 014.8C,00002191
2021-01-03 12:27:47 r, 00.00m,0000597967Hz,0000000000c,0000000.000s, 014.8C,00002191
2021-01-03 12:37:45 r, 00.00m,0000597901Hz,0000000000c,0000000.000s, 015.1C,00002191
2021-01-03 12:47:44 r, 00.00m,0000597886Hz,0000000000c,0000000.000s, 015.1C,00002191
2021-01-03 12:57:47 r, 00.00m,0000597878Hz,0000000000c,0000000.000s, 015.1C,00002191
2021-01-03 13:07:45 r, 00.00m,0000597903Hz,0000000000c,0000000.000s, 015.1C,00002191
2021-01-03 13:17:44 r, 00.00m,0000597974Hz,0000000000c,0000000.000s, 015.1C,00002191
2021-01-03 13:27:47 r, 00.00m,0000598027Hz,0000000000c,0000000.000s, 014.8C,00002191
2021-01-03 13:37:45 r, 00.00m,0000598025Hz,0000000000c,0000000.000s, 014.5C,00002191
2021-01-03 13:47:44 r, 00.00m,0000598077Hz,0000000000c,0000000.000s, 014.5C,00002191
2021-01-03 13:57:45 r, 00.00m,0000597969Hz,0000000000c,0000000.000s, 014.8C,00002191
2021-01-03 14:07:47 r, 00.00m,0000597991Hz,0000000000c,0000000.000s, 014.8C,00002191
2021-01-03 14:17:44 r, 00.00m,0000597954Hz,0000000000c,0000000.000s, 014.8C,00002191
2021-01-03 14:27:45 r, 00.00m,0000598005Hz,0000000000c,0000000.000s, 015.1C,00002191
2021-01-03 14:37:45 r, 00.00m,0000597932Hz,0000000000c,0000000.000s, 015.1C,00002191
2021-01-03 14:47:44 r, 00.00m,0000598050Hz,0000000000c,0000000.000s, 014.8C,00002191
2021-01-03 14:57:47 r, 00.00m,0000598058Hz,0000000000c,0000000.000s, 014.5C,00002191
2021-01-03 15:07:45 r, 00.00m,0000598124Hz,0000000000c,0000000.000s, 014.5C,00002191
2021-01-03 15:17:44 r, 00.00m,0000598101Hz,0000000000c,0000000.000s, 014.1C,00002191
2021-01-03 15:27:46 r, 00.00m,0000598153Hz,0000000000c,0000000.000s, 014.1C,00002191
2021-01-03 15:37:45 r, 00.00m,0000598131Hz,0000000000c,0000000.000s, 013.8C,00002191
2021-01-03 15:47:44 r, 00.00m,0000598221Hz,0000000000c,0000000.000s, 013.5C,00002191
2021-01-03 15:57:45 r, 00.00m,0000598198Hz,0000000000c,0000000.000s, 012.8C,00002191
2021-01-03 16:07:46 r, 00.00m,0000471547Hz,0000000000c,0000000.000s, 012.5C,00002191
2021-01-03 16:17:44 r, 05.93m,0000359976Hz,0000000000c,0000000.000s, 012.2C,00002191
2021-01-03 16:27:45 r, 06.64m,0000186764Hz,0000000000c,0000000.000s, 011.9C,00002191
2021-01-03 16:37:45 r, 07.39m,0000093537Hz,0000000000c,0000000.000s, 011.6C,00002191
2021-01-03 16:47:44 r, 08.19m,0000044561Hz,0000000000c,0000000.000s, 011.6C,00002191
2021-01-03 16:57:45 r, 09.50m,0000013444Hz,0000000000c,0000000.000s, 011.2C,00002191
2021-01-03 17:07:46 r, 11.20m,0000002786Hz,0000000000c,0000000.000s, 011.2C,00002191
2021-01-03 17:17:44 r, 12.98m,0000000547Hz,0000000000c,0000000.000s, 011.2C,00002191
2021-01-03 17:27:46 r, 14.80m,0000000101Hz,0000004586c,0000000.010s, 011.2C,00002191
2021-01-03 17:37:45 r, 16.27m,0000000026Hz,0000017753c,0000000.039s, 011.2C,00002191
2021-01-03 17:47:44 r, 16.87m,0000000015Hz,0000030646c,0000000.067s, 011.2C,00002191
2021-01-03 17:57:46 r, 17.12m,0000000012Hz,0000038659c,0000000.084s, 011.2C,00002191
2021-01-03 18:07:45 r, 17.16m,0000000011Hz,0000040304c,0000000.087s, 010.9C,00002191
2021-01-03 18:17:44 r, 17.44m,0000000009Hz,0000051742c,0000000.112s, 010.6C,00002191
2021-01-03 18:27:45 r, 17.52m,0000000008Hz,0000055837c,0000000.121s, 010.6C,00002191
2021-01-03 18:37:46 r, 17.64m,0000000008Hz,0000062717c,0000000.136s, 010.6C,00002191
2021-01-03 18:47:44 r, 17.76m,0000000007Hz,0000069885c,0000000.152s, 010.6C,00002191
2021-01-03 18:57:46 r, 17.92m,0000000005Hz,0000080107c,0000000.174s, 010.6C,00002191
2021-01-03 19:07:45 r, 17.94m,0000000005Hz,0000081535c,0000000.177s, 010.3C,00002191
2021-01-03 19:17:44 r, 18.04m,0000000005Hz,0000089924c,0000000.195s, 010.6C,00002191
2021-01-03 19:27:46 r, 17.85m,0000000006Hz,0000075632c,0000000.164s, 010.6C,00002191
2021-01-03 19:37:45 r, 17.89m,0000000006Hz,0000078163c,0000000.170s, 010.6C,00002191
2021-01-03 19:47:44 r, 17.88m,0000000006Hz,0000077298c,0000000.168s, 010.6C,00002191
2021-01-03 19:57:47 r, 17.43m,0000000009Hz,0000051452c,0000000.112s, 010.3C,00002191
2021-01-03 20:07:45 r, 17.42m,0000000009Hz,0000051141c,0000000.111s, 010.6C,00002191
2021-01-03 20:17:44 r, 17.37m,0000000009Hz,0000048617c,0000000.106s, 010.9C,00002191
2021-01-03 20:27:45 r, 17.47m,0000000008Hz,0000053254c,0000000.116s, 011.2C,00002191
2021-01-03 20:37:45 r, 17.53m,0000000008Hz,0000056337c,0000000.122s, 011.6C,00002191
2021-01-03 20:47:44 r, 17.46m,0000000009Hz,0000053075c,0000000.115s, 012.2C,00002191
2021-01-03 20:57:46 r, 17.32m,0000000010Hz,0000046522c,0000000.101s, 012.5C,00002191
2021-01-03 21:07:45 r, 17.15m,0000000011Hz,0000039761c,0000000.086s, 012.5C,00002191
2021-01-03 21:17:44 r, 17.05m,0000000013Hz,0000036310c,0000000.079s, 012.8C,00002191
2021-01-03 21:27:45 r, 17.15m,0000000012Hz,0000039877c,0000000.087s, 012.8C,00002191
2021-01-03 21:37:47 r, 17.30m,0000000010Hz,0000045522c,0000000.099s, 012.8C,00002191
2021-01-03 21:47:44 r, 17.53m,0000000009Hz,0000056290c,0000000.122s, 012.8C,00002191
2021-01-03 21:57:44 r, 17.66m,0000000007Hz,0000063882c,0000000.139s, 012.8C,00002191
2021-01-03 22:07:45 r, 17.44m,0000000009Hz,0000051823c,0000000.112s, 012.8C,00002191
2021-01-03 22:17:44 r, 17.39m,0000000010Hz,0000049585c,0000000.108s, 013.2C,00002191
2021-01-03 22:27:44 r, 17.22m,0000000011Hz,0000042614c,0000000.092s, 013.2C,00002191
2021-01-03 22:37:45 r, 17.28m,0000000010Hz,0000044689c,0000000.097s, 013.5C,00002191
2021-01-03 22:47:44 r, 17.20m,0000000011Hz,0000041715c,0000000.091s, 013.5C,00002191
2021-01-03 22:57:44 r, 16.92m,0000000014Hz,0000032000c,0000000.069s, 013.5C,00002191
2021-01-03 23:07:46 r, 17.14m,0000000012Hz,0000039529c,0000000.086s, 013.2C,00002191
2021-01-03 23:17:44 r, 17.20m,0000000012Hz,0000041543c,0000000.090s, 013.2C,00002191
2021-01-03 23:27:44 r, 17.05m,0000000012Hz,0000036470c,0000000.079s, 013.2C,00002191
2021-01-03 23:37:46 r, 16.90m,0000000015Hz,0000031593c,0000000.069s, 013.5C,00002191
2021-01-03 23:47:44 r, 17.04m,0000000013Hz,0000035871c,0000000.078s, 013.5C,00002191
2021-01-03 23:57:44 r, 17.03m,0000000013Hz,0000035747c,0000000.078s, 013.8C,00002191
